QPF
0.00 0.00 0.00 0.00 0.00 0.00 0.00 0.00 0.00 0.00 0.00 0.00 0.00 0.01 0.01 0.01 0.01 0.04 0.04 0.03 0.04 0.05 0.08 0.08 0.07 0.09 0.05 0.04 0.05 0.06 0.07 0.08 0.09 0.08 0.07 0.07 0.09 0.10 0.08 0.08 0.09 0.09 0.09 0.11
0.00 0.00 0.00 0.00 0.00 0.00 0.00 0.00 0.00 0.00 0.00 0.00 0.00 0.00 0.01 0.00 0.01 0.02 0.04 0.07 0.09 0.10 0.22 0.25 0.22 0.21 0.10 0.06 0.07 0.09 0.10 0.11 0.10 0.10 0.11 0.13 0.15 0.14 0.14 0.13 0.12 0.11 0.12 0.14
0.00 0.00 0.00 0.00 0.00 0.00 0.00 0.00 0.00 0.00 0.00 0.00 0.00 0.01 0.02 0.01 0.01 0.03 0.07 0.15 0.29 0.32 0.43 0.40 0.37 0.32 0.18 0.12 0.12 0.11 0.13 0.14 0.14 0.15 0.14 0.16 0.18 0.21 0.24 0.24 0.22 0.20 0.20 0.17
0.00 0.00 0.00 0.00 0.00 0.00 0.00 0.00 0.00 0.00 0.00 0.00 0.00 0.03 0.05 0.03 0.02 0.07 0.11 0.11 0.19 0.33 0.45 0.44 0.46 0.35 0.26 0.19 0.15 0.16 0.18 0.18 0.18 0.19 0.22 0.23 0.24 0.26 0.28 0.30 0.32 0.30 0.26 0.20
0.00 0.00 0.00 0.00 0.00 0.00 0.00 0.00 0.00 0.00 0.00 0.00 0.00 0.03 0.11 0.09 0.07 0.06 0.07 0.07 0.07 0.13 0.25 0.30 0.37 0.30 0.24 0.19 0.16 0.15 0.16 0.19 0.23 0.26 0.36 0.32 0.29 0.31 0.34 0.33 0.30 0.26 0.22 0.20
0.00 0.00 0.00 0.00 0.00 0.00 0.00 0.00 0.00 0.00 0.00 0.00 0.00 0.02 0.16 0.26 0.21 0.16 0.06 0.03 0.04 0.05 0.09 0.08 0.14 0.18 0.13 0.13 0.14 0.13 0.13 0.15 0.21 0.25 0.33 0.36 0.40 0.41 0.36 0.31 0.27 0.27 0.31 0.31
0.01 0.00 0.00 0.00 0.00 0.00 0.00 0.00 0.00 0.00 0.00 0.00 0.00 0.04 0.19 0.32 0.35 0.20 0.07 0.02 0.02 0.03 0.03 0.03 0.04 0.08 0.09 0.09 0.10 0.12 0.12 0.14 0.17 0.20 0.23 0.30 0.36 0.38 0.36 0.32 0.27 0.26 0.24 0.21
0.07 0.03 0.01 0.00 0.00 0.00 0.00 0.00 0.00 0.00 0.00 0.00 0.01 0.07 0.14 0.18 0.20 0.10 0.04 0.02 0.01 0.02 0.02 0.02 0.02 0.02 0.03 0.04 0.06 0.06 0.07 0.09 0.12 0.13 0.15 0.18 0.19 0.22 0.22 0.19 0.18 0.17 0.14 0.11
0.13 0.06 0.01 0.00 0.00 0.00 0.00 0.00 0.00 0.00 0.00 0.03 0.08 0.11 0.12 0.10 0.06 0.05 0.04 0.02 0.02 0.02 0.02 0.02 0.03 0.02 0.02 0.03 0.04 0.04 0.04 0.05 0.05 0.07 0.08 0.09 0.09 0.11 0.12 0.11 0.09 0.08 0.07 0.07
0.09 0.07 0.02 0.00 0.00 0.00 0.00 0.00 0.00 0.00 0.01 0.07 0.15 0.15 0.12 0.10 0.04 0.03 0.03 0.03 0.03 0.03 0.03 0.02 0.02 0.02 0.02 0.02 0.03 0.04 0.03 0.03 0.03 0.04 0.05 0.05 0.06 0.06 0.06 0.05 0.05 0.05 0.05 0.05
0.05 0.06 0.03 0.01 0.01 0.01 0.00 0.00 0.00 0.00 0.01 0.07 0.19 0.32 0.27 0.18 0.08 0.03 0.02 0.02 0.02 0.02 0.02 0.02 0.01 0.01 0.01 0.02 0.02 0.02 0.02 0.02 0.02 0.02 0.02 0.02 0.03 0.03 0.03 0.03 0.03 0.03 0.03 0.03
0.04 0.10 0.09 0.03 0.01 0.01 0.00 0.00 0.00 0.01 0.02 0.03 0.13 0.43 0.54 0.30 0.11 0.05 0.02 0.01 0.01 0.01 0.01 0.01 0.01 0.01 0.01 0.01 0.01 0.01 0.01 0.01 0.01 0.01 0.01 0.01 0.01 0.01 0.01 0.01 0.02 0.02 0.02 0.03
0.03 0.08 0.17 0.10 0.04 0.01 0.00 0.00 0.00 0.00 0.01 0.02 0.12 0.35 0.44 0.24 0.12 0.07 0.03 0.02 0.01 0.01 0.01 0.01 0.01 0.01 0.01 0.01 0.01 0.01 0.01 0.01 0.01 0.01 0.01 0.01 0.01 0.01 0.01 0.01 0.02 0.03 0.03 0.03
0.02 0.10 0.25 0.24 0.13 0.07 0.02 0.01 0.00 0.00 0.02 0.05 0.13 0.26 0.30 0.19 0.11 0.06 0.03 0.02 0.01 0.01 0.01 0.01 0.01 0.01 0.01 0.01 0.00 0.00 0.01 0.01 0.01 0.01 0.01 0.01 0.01 0.01 0.01 0.02 0.02 0.01 0.01 0.01
0.06 0.18 0.21 0.15 0.11 0.09 0.05 0.02 0.01 0.02 0.04 0.11 0.23 0.24 0.22 0.16 0.10 0.06 0.05 0.04 0.04 0.04 0.04 0.04 0.03 0.03 0.02 0.01 0.01 0.01 0.01 0.01 0.01 0.01 0.01 0.01 0.01 0.01 0.01 0.01 0.01 0.01 0.00 0.00
0.05 0.11 0.11 0.09 0.06 0.06 0.03 0.02 0.01 0.02 0.05 0.11 0.19 0.22 0.23 0.17 0.12 0.08 0.08 0.09 0.09 0.09 0.08 0.07 0.06 0.04 0.03 0.02 0.01 0.01 0.01 0.01 0.01 0.01 0.01 0.01 0.01 0.01 0.01 0.01 0.01 0.01 0.00 0.00
0.03 0.04 0.08 0.08 0.04 0.06 0.07 0.02 0.01 0.02 0.03 0.08 0.10 0.09 0.13 0.12 0.11 0.11 0.11 0.09 0.10 0.11 0.10 0.09 0.08 0.07 0.05 0.03 0.02 0.01 0.01 0.01 0.01 0.01 0.01 0.01 0.01 0.01 0.00 0.00 0.01 0.01 0.01 0.01
0.01 0.02 0.03 0.05 0.07 0.13 0.08 0.02 0.01 0.02 0.03 0.03 0.03 0.03 0.06 0.09 0.13 0.17 0.18 0.16 0.16 0.15 0.14 0.13 0.10 0.07 0.05 0.03 0.02 0.01 0.01 0.02 0.02 0.01 0.01 0.00 0.00 0.00 0.00 0.01 0.01 0.02 0.02 0.02
0.00 0.00 0.02 0.04 0.09 0.11 0.05 0.02 0.01 0.03 0.04 0.03 0.02 0.02 0.04 0.07 0.10 0.17 0.18 0.18 0.17 0.17 0.16 0.14 0.12 0.10 0.08 0.05 0.04 0.02 0.02 0.02 0.01 0.01 0.01 0.00 0.00 0.00 0.01 0.01 0.02 0.02 0.02 0.02
0.00 0.00 0.01 0.04 0.07 0.11 0.09 0.03 0.01 0.03 0.08 0.06 0.03 0.03 0.06 0.09 0.11 0.13 0.13 0.12 0.12 0.12 0.11 0.09 0.08 0.07 0.05 0.04 0.04 0.03 0.02 0.02 0.01 0.01 0.01 0.01 0.01 0.01 0.01 0.02 0.02 0.02 0.02 0.02
0.00 0.00 0.01 0.03 0.06 0.08 0.04 0.03 0.04 0.10 0.12 0.06 0.04 0.05 0.09 0.12 0.10 0.07 0.07 0.07 0.06 0.06 0.05 0.04 0.04 0.05 0.04 0.03 0.03 0.03 0.03 0.02 0.01 0.01 0.01 0.01 0.01 0.01 0.01 0.02 0.02 0.02 0.02 0.02
0.00 0.01 0.02 0.03 0.06 0.06 0.02 0.04 0.07 0.08 0.05 0.04 0.05 0.06 0.06 0.05 0.04 0.03 0.03 0.03 0.04 0.03 0.03 0.03 0.04 0.04 0.04 0.03 0.03 0.03 0.03 0.02 0.01 0.01 0.01 0.01 0.01 0.00 0.01 0.02 0.03 0.02 0.02 0.02
0.00 0.01 0.01 0.02 0.04 0.02 0.01 0.02 0.02 0.02 0.02 0.03 0.03 0.03 0.02 0.02 0.02 0.03 0.03 0.03 0.03 0.03 0.04 0.04 0.03 0.04 0.04 0.04 0.04 0.05 0.03 0.01 0.01 0.02 0.02 0.02 0.01 0.00 0.00 0.01 0.03 0.02 0.02 0.01
0.00 0.00 0.00 0.00 0.01 0.01 0.01 0.01 0.02 0.03 0.03 0.02 0.01 0.01 0.01 0.01 0.01 0.02 0.02 0.04 0.05 0.05 0.04 0.04 0.04 0.04 0.04 0.03 0.04 0.04 0.02 0.01 0.02 0.02 0.02 0.01 0.01 0.01 0.01 0.01 0.00 0.00 0.00 0.00
0.00 0.00 0.00 0.00 0.00 0.01 0.01 0.01 0.01 0.02 0.01 0.01 0.00 0.00 0.01 0.01 0.01 0.01 0.02 0.03 0.04 0.04 0.04 0.04 0.05 0.05 0.04 0.03 0.03 0.02 0.01 0.01 0.02 0.02 0.01 0.01 0.01 0.01 0.01 0.01 0.00 0.00 0.00 0.00
0.00 0.00 0.00 0.00 0.00 0.00 0.01 0.01 0.00 0.00 0.00 0.00 0.00 0.00 0.01 0.01 0.01 0.01 0.02 0.02 0.03 0.03 0.05 0.06 0.05 0.04 0.03 0.03 0.03 0.01 0.00 0.00 0.01 0.02 0.01 0.01 0.01 0.01 0.01 0.01 0.01 0.00 0.00 0.00
MSLP
1008.51 1008.68 1008.68 1008.52 1008.22 1007.83 1007.41 1007.00 1006.62 1006.28 1005.98 1005.68 1005.37 1005.02 1004.65 1004.26 1003.89 1003.58 1003.37 1003.29 1003.38 1003.63 1004.04 1004.59 1005.25 1005.97 1006.74 1007.52 1008.28 1009.00 1009.68 1010.31 1010.88 1011.40 1011.87 1012.30 1012.70 1013.09 1013.46 1013.85 1014.25 1014.67 1015.10 1015.54
1008.55 1008.63 1008.53 1008.29 1007.95 1007.56 1007.16 1006.81 1006.51 1006.26 1006.03 1005.80 1005.54 1005.23 1004.88 1004.52 1004.19 1003.93 1003.79 1003.81 1003.98 1004.32 1004.80 1005.38 1006.02 1006.68 1007.35 1007.99 1008.61 1009.20 1009.77 1010.32 1010.87 1011.40 1011.92 1012.44 1012.94 1013.43 1013.91 1014.39 1014.87 1015.36 1015.85 1016.32
1008.51 1008.51 1008.35 1008.06 1007.71 1007.34 1007.01 1006.76 1006.59 1006.47 1006.37 1006.26 1006.10 1005.87 1005.59 1005.29 1005.01 1004.81 1004.74 1004.82 1005.07 1005.46 1005.96 1006.53 1007.13 1007.70 1008.23 1008.71 1009.16 1009.58 1010.01 1010.47 1010.97 1011.50 1012.08 1012.68 1013.30 1013.91 1014.52 1015.12 1015.69 1016.26 1016.80 1017.32
1008.43 1008.37 1008.16 1007.86 1007.51 1007.20 1006.97 1006.84 1006.82 1006.88 1006.95 1007.00 1006.99 1006.89 1006.71 1006.50 1006.30 1006.17 1006.15 1006.29 1006.57 1006.98 1007.49 1008.02 1008.54 1009.00 1009.39 1009.71 1009.97 1010.23 1010.52 1010.87 1011.30 1011.83 1012.45 1013.13 1013.85 1014.59 1015.31 1016.02 1016.69 1017.33 1017.92 1018.46
1008.37 1008.27 1008.03 1007.70 1007.38 1007.12 1006.97 1006.97 1007.11 1007.34 1007.61 1007.85 1008.02 1008.09 1008.06 1007.97 1007.86 1007.81 1007.85 1008.03 1008.34 1008.75 1009.24 1009.73 1010.17 1010.53 1010.79 1010.97 1011.08 1011.19 1011.34 1011.59 1011.97 1012.48 1013.11 1013.84 1014.64 1015.47 1016.29 1017.08 1017.81 1018.49 1019.10 1019.64
1008.40 1008.26 1007.98 1007.64 1007.30 1007.06 1006.97 1007.06 1007.33 1007.71 1008.16 1008.59 1008.96 1009.22 1009.37 1009.43 1009.45 1009.50 1009.61 1009.83 1010.17 1010.59 1011.05 1011.51 1011.90 1012.19 1012.37 1012.44 1012.45 1012.45 1012.50 1012.67 1012.99 1013.46 1014.09 1014.84 1015.67 1016.54 1017.40 1018.22 1018.97 1019.64 1020.22 1020.73
1008.56 1008.39 1008.06 1007.67 1007.29 1007.02 1006.93 1007.04 1007.37 1007.85 1008.43 1009.04 1009.59 1010.05 1010.39 1010.63 1010.81 1010.98 1011.19 1011.47 1011.84 1012.28 1012.75 1013.20 1013.58 1013.85 1013.99 1014.02 1013.99 1013.93 1013.93 1014.04 1014.31 1014.74 1015.33 1016.06 1016.87 1017.72 1018.56 1019.35 1020.06 1020.68 1021.20 1021.63
1008.87 1008.65 1008.28 1007.82 1007.36 1007.01 1006.84 1006.90 1007.20 1007.71 1008.37 1009.09 1009.80 1010.45 1010.98 1011.41 1011.76 1012.08 1012.40 1012.77 1013.20 1013.69 1014.19 1014.67 1015.07 1015.37 1015.54 1015.60 1015.57 1015.52 1015.50 1015.58 1015.80 1016.18 1016.72 1017.38 1018.12 1018.90 1019.67 1020.37 1021.00 1021.52 1021.95 1022.29
1009.27 1009.05 1008.63 1008.09 1007.53 1007.05 1006.74 1006.68 1006.89 1007.35 1008.01 1008.78 1009.60 1010.40 1011.11 1011.73 1012.25 1012.73 1013.19 1013.66 1014.17 1014.72 1015.28 1015.82 1016.29 1016.65 1016.89 1017.02 1017.05 1017.05 1017.05 1017.13 1017.32 1017.64 1018.09 1018.66 1019.31 1019.98 1020.63 1021.22 1021.72 1022.14 1022.46 1022.70
1009.72 1009.51 1009.08 1008.48 1007.82 1007.20 1006.73 1006.51 1006.56 1006.91 1007.50 1008.27 1009.15 1010.04 1010.90 1011.68 1012.37 1013.01 1013.60 1014.18 1014.79 1015.41 1016.04 1016.64 1017.18 1017.63 1017.97 1018.20 1018.32 1018.38 1018.43 1018.52 1018.69 1018.95 1019.32 1019.79 1020.31 1020.85 1021.37 1021.84 1022.23 1022.53 1022.76 1022.92
1010.11 1009.97 1009.57 1008.96 1008.24 1007.51 1006.90 1006.50 1006.39 1006.59 1007.07 1007.79 1008.67 1009.62 1010.57 1011.49 1012.32 1013.09 1013.80 1014.48 1015.16 1015.85 1016.53 1017.19 1017.80 1018.33 1018.76 1019.07 1019.29 1019.43 1019.53 1019.63 1019.78 1020.00 1020.30 1020.66 1021.07 1021.49 1021.89 1022.25 1022.54 1022.77 1022.92 1023.03
1010.36 1010.33 1010.02 1009.48 1008.76 1008.00 1007.29 1006.77 1006.52 1006.57 1006.93 1007.57 1008.41 1009.38 1010.40 1011.39 1012.33 1013.20 1014.00 1014.76 1015.48 1016.20 1016.91 1017.59 1018.23 1018.81 1019.29 1019.68 1019.97 1020.17 1020.31 1020.44 1020.58 1020.76 1020.99 1021.27 1021.59 1021.92 1022.23 1022.51 1022.74 1022.92 1023.05 1023.14
1010.41 1010.54 1010.38 1009.97 1009.34 1008.62 1007.91 1007.33 1006.99 1006.94 1007.20 1007.76 1008.55 1009.51 1010.54 1011.59 1012.59 1013.53 1014.38 1015.17 1015.91 1016.62 1017.31 1017.98 1018.61 1019.18 1019.68 1020.09 1020.42 1020.65 1020.83 1020.97 1021.11 1021.26 1021.45 1021.67 1021.92 1022.19 1022.45 1022.69 1022.89 1023.07 1023.20 1023.31
1010.25 1010.55 1010.59 1010.37 1009.91 1009.32 1008.68 1008.14 1007.78 1007.69 1007.89 1008.39 1009.13 1010.06 1011.10 1012.16 1013.19 1014.15 1015.03 1015.82 1016.54 1017.20 1017.84 1018.44 1019.01 1019.54 1020.01 1020.41 1020.73 1020.98 1021.17 1021.32 1021.45 1021.59 1021.75 1021.93 1022.15 1022.38 1022.62 1022.85 1023.06 1023.25 1023.41 1023.56
1009.90 1010.38 1010.63 1010.62 1010.39 1009.99 1009.51 1009.07 1008.77 1008.69 1008.89 1009.36 1010.07 1010.98 1012.00 1013.07 1014.10 1015.07 1015.93 1016.70 1017.37 1017.97 1018.52 1019.03 1019.51 1019.95 1020.35 1020.70 1021.00 1021.24 1021.42 1021.57 1021.70 1021.84 1021.99 1022.16 1022.35 1022.57 1022.80 1023.03 1023.26 1023.47 1023.67 1023.85
1009.44 1010.05 1010.49 1010.71 1010.71 1010.53 1010.26 1009.98 1009.79 1009.79 1010.01 1010.49 1011.19 1012.09 1013.10 1014.15 1015.18 1016.14 1016.99 1017.72 1018.34 1018.86 1019.32 1019.72 1020.09 1020.43 1020.75 1021.03 1021.28 1021.49 1021.67 1021.82 1021.96 1022.10 1022.25 1022.41 1022.60 1022.81 1023.03 1023.25 1023.48 1023.71 1023.93 1024.14
1008.95 1009.65 1010.23 1010.63 1010.85 1010.89 1010.83 1010.73 1010.69 1010.78 1011.06 1011.57 1012.28 1013.17 1014.18 1015.23 1016.26 1017.21 1018.04 1018.74 1019.31 1019.77 1020.14 1020.44 1020.71 1020.96 1021.18 1021.40 1021.60 1021.79 1021.96 1022.12 1022.27 1022.41 1022.57 1022.73 1022.91 1023.10 1023.30 1023.51 1023.72 1023.93 1024.14 1024.35
1008.53 1009.25 1009.90 1010.43 1010.81 1011.04 1011.15 1011.22 1011.32 1011.53 1011.88 1012.43 1013.16 1014.06 1015.06 1016.12 1017.14 1018.09 1018.92 1019.60 1020.14 1020.56 1020.86 1021.09 1021.28 1021.45 1021.61 1021.77 1021.94 1022.11 1022.28 1022.45 1022.62 1022.79 1022.95 1023.11 1023.27 1023.44 1023.60 1023.77 1023.94 1024.11 1024.29 1024.48
1008.23 1008.92 1009.58 1010.17 1010.65 1011.01 1011.26 1011.46 1011.68 1011.97 1012.40 1012.99 1013.74 1014.65 1015.65 1016.70 1017.74 1018.69 1019.52 1020.21 1020.74 1021.13 1021.41 1021.59 1021.73 1021.85 1021.96 1022.09 1022.25 1022.42 1022.60 1022.80 1022.99 1023.18 1023.35 1023.51 1023.66 1023.79 1023.90 1024.02 1024.13 1024.25 1024.38 1024.53
1008.09 1008.71 1009.34 1009.93 1010.45 1010.87 1011.21 1011.51 1011.81 1012.18 1012.65 1013.27 1014.04 1014.94 1015.95 1017.00 1018.03 1018.99 1019.84 1020.53 1021.07 1021.46 1021.73 1021.90 1022.02 1022.11 1022.21 1022.33 1022.48 1022.66 1022.87 1023.10 1023.32 1023.53 1023.73 1023.89 1024.02 1024.12 1024.19 1024.25 1024.31 1024.37 1024.45 1024.56
1008.09 1008.62 1009.19 1009.76 1010.27 1010.73 1011.12 1011.47 1011.83 1012.24 1012.75 1013.38 1014.15 1015.05 1016.04 1017.08 1018.10 1019.06 1019.91 1020.62 1021.17 1021.58 1021.85 1022.02 1022.14 1022.23 1022.33 1022.45 1022.61 1022.82 1023.06 1023.32 1023.57 1023.82 1024.03 1024.20 1024.32 1024.40 1024.45 1024.47 1024.49 1024.51 1024.56 1024.64
1008.19 1008.65 1009.16 1009.68 1010.18 1010.64 1011.06 1011.45 1011.85 1012.29 1012.82 1013.46 1014.22 1015.10 1016.06 1017.08 1018.08 1019.02 1019.87 1020.58 1021.14 1021.55 1021.83 1022.02 1022.14 1022.24 1022.34 1022.48 1022.66 1022.89 1023.15 1023.44 1023.72 1023.99 1024.23 1024.41 1024.54 1024.62 1024.66 1024.67 1024.68 1024.69 1024.73 1024.81
1008.33 1008.74 1009.21 1009.71 1010.20 1010.67 1011.12 1011.54 1011.98 1012.45 1013.00 1013.64 1014.39 1015.24 1016.16 1017.13 1018.09 1019.00 1019.81 1020.50 1021.06 1021.47 1021.76 1021.95 1022.09 1022.20 1022.31 1022.46 1022.65 1022.89 1023.17 1023.47 1023.77 1024.06 1024.31 1024.52 1024.67 1024.76 1024.82 1024.85 1024.88 1024.91 1024.98 1025.09
1008.45 1008.85 1009.31 1009.81 1010.32 1010.82 1011.31 1011.78 1012.27 1012.78 1013.35 1014.00 1014.73 1015.54 1016.41 1017.32 1018.22 1019.07 1019.84 1020.49 1021.02 1021.42 1021.71 1021.90 1022.04 1022.16 1022.28 1022.43 1022.62 1022.86 1023.14 1023.44 1023.75 1024.04 1024.30 1024.52 1024.69 1024.82 1024.91 1024.98 1025.06 1025.15 1025.26 1025.41
1008.52 1008.94 1009.42 1009.95 1010.50 1011.06 1011.61 1012.16 1012.71 1013.27 1013.88 1014.53 1015.25 1016.02 1016.83 1017.67 1018.49 1019.27 1019.97 1020.58 1021.07 1021.45 1021.72 1021.91 1022.05 1022.17 1022.29 1022.44 1022.62 1022.85 1023.10 1023.39 1023.67 1023.95 1024.21 1024.43 1024.62 1024.78 1024.92 1025.05 1025.18 1025.33 1025.51 1025.72
1008.52 1008.97 1009.50 1010.09 1010.70 1011.34 1011.98 1012.61 1013.24 1013.88 1014.52 1015.19 1015.90 1016.63 1017.38 1018.14 1018.88 1019.58 1020.21 1020.75 1021.19 1021.54 1021.80 1021.98 1022.13 1022.25 1022.36 1022.50 1022.66 1022.86 1023.09 1023.33 1023.58 1023.83 1024.06 1024.28 1024.48 1024.66 1024.83 1025.01 1025.21 1025.42 1025.66 1025.92
Thickness
5700 5692 5693 5706 5716 5721 5727 5731 5742 5760 5775 5763 5755 5757 5770 5783 5788 5787 5786 5786 5782 5783 5788 5786 5786 5784 5782 5780 5775 5771 5768 5765 5761 5756 5753 5749 5747 5746 5743 5740 5737 5735 5732 5729
5692 5691 5708 5722 5726 5725 5724 5724 5734 5752 5765 5755 5752 5755 5767 5774 5774 5774 5771 5766 5767 5765 5764 5763 5767 5766 5769 5767 5765 5761 5758 5758 5756 5753 5750 5747 5743 5739 5736 5733 5729 5726 5723 5720
5688 5703 5716 5713 5712 5710 5714 5718 5728 5735 5748 5750 5743 5740 5751 5757 5760 5758 5754 5754 5752 5743 5736 5736 5740 5744 5750 5751 5752 5753 5752 5751 5750 5748 5745 5741 5735 5730 5726 5721 5716 5713 5711 5707
5696 5708 5708 5702 5704 5707 5705 5727 5732 5733 5731 5731 5736 5720 5734 5741 5738 5737 5733 5732 5730 5726 5722 5720 5721 5725 5730 5736 5741 5742 5742 5742 5742 5741 5736 5730 5725 5718 5713 5709 5704 5699 5695 5693
5692 5703 5701 5698 5706 5713 5715 5734 5732 5730 5728 5727 5736 5726 5721 5728 5716 5714 5713 5711 5713 5713 5710 5707 5708 5710 5716 5721 5725 5727 5728 5728 5729 5729 5726 5721 5715 5709 5703 5697 5692 5687 5682 5680
5694 5708 5707 5708 5717 5721 5724 5726 5726 5727 5725 5709 5727 5726 5706 5706 5703 5698 5698 5697 5698 5699 5698 5697 5699 5700 5702 5707 5709 5711 5712 5712 5712 5713 5711 5708 5702 5696 5690 5684 5678 5673 5669 5666
5676 5691 5705 5713 5706 5713 5713 5703 5694 5694 5698 5707 5738 5728 5688 5693 5697 5691 5685 5684 5685 5686 5686 5686 5686 5686 5688 5691 5693 5695 5696 5695 5695 5695 5693 5691 5687 5682 5677 5670 5663 5660 5656 5652
5647 5657 5690 5705 5704 5704 5706 5704 5689 5686 5694 5713 5733 5710 5679 5688 5688 5686 5682 5678 5675 5674 5673 5673 5674 5675 5676 5677 5678 5679 5680 5679 5679 5678 5675 5674 5671 5666 5660 5655 5650 5646 5641 5637
5642 5654 5690 5708 5716 5714 5706 5705 5715 5700 5696 5693 5699 5677 5672 5680 5677 5675 5673 5671 5666 5663 5662 5661 5661 5661 5662 5662 5663 5664 5664 5664 5663 5661 5660 5657 5654 5650 5644 5640 5636 5631 5628 5625
5657 5649 5680 5706 5717 5718 5720 5719 5708 5697 5678 5669 5676 5677 5670 5668 5668 5666 5663 5660 5657 5654 5652 5650 5649 5649 5649 5649 5649 5650 5650 5650 5648 5647 5645 5642 5638 5634 5630 5626 5622 5618 5614 5611
5669 5654 5667 5689 5696 5701 5708 5712 5711 5709 5697 5672 5656 5663 5683 5672 5665 5659 5654 5651 5649 5646 5643 5641 5640 5639 5638 5638 5638 5637 5636 5635 5633 5631 5629 5627 5624 5620 5616 5612 5607 5604 5601 5598
5670 5660 5655 5672 5699 5714 5713 5715 5714 5697 5692 5691 5670 5650 5670 5665 5659 5652 5646 5642 5640 5637 5634 5632 5631 5630 5629 5627 5626 5625 5623 5621 5619 5616 5615 5612 5609 5605 5601 5597 5594 5590 5587 5585
5669 5652 5641 5658 5678 5698 5704 5715 5720 5715 5702 5691 5667 5644 5654 5652 5646 5642 5637 5633 5629 5626 5624 5623 5621 5619 5617 5616 5614 5612 5611 5608 5606 5603 5601 5597 5594 5590 5587 5583 5580 5577 5574 5572
5673 5652 5636 5639 5657 5669 5681 5699 5710 5708 5694 5681 5665 5645 5639 5637 5635 5630 5626 5622 5619 5616 5614 5612 5609 5606 5605 5603 5602 5600 5597 5595 5593 5590 5587 5584 5580 5577 5574 5571 5568 5565 5562 5560
5674 5650 5647 5657 5667 5672 5679 5687 5696 5692 5685 5668 5653 5645 5636 5633 5628 5622 5617 5612 5609 5605 5602 5600 5597 5594 5592 5590 5588 5587 5585 5583 5581 5578 5574 5571 5568 5565 5561 5559 5556 5553 5551 5548
5676 5657 5658 5659 5671 5674 5674 5682 5686 5678 5672 5660 5650 5634 5632 5626 5620 5613 5608 5604 5599 5595 5591 5588 5584 5581 5579 5577 5575 5573 5571 5570 5568 5565 5562 5559 5556 5553 5550 5547 5544 5541 5539 5536
5680 5668 5660 5660 5672 5672 5659 5669 5669 5662 5660 5655 5640 5628 5622 5615 5610 5605 5601 5596 5590 5585 5580 5576 5572 5569 5567 5565 5563 5561 5560 5558 5556 5554 5551 5549 5546 5543 5540 5537 5533 5530 5527 5524
5679 5674 5670 5668 5665 5643 5655 5674 5668 5655 5646 5643 5633 5622 5614 5606 5599 5594 5590 5585 5580 5574 5569 5565 5561 5558 5556 5555 5553 5552 5550 5548 5546 5544 5541 5538 5535 5532 5529 5526 5522 5519 5517 5514
5689 5677 5672 5665 5652 5647 5656 5666 5664 5649 5630 5630 5621 5612 5604 5597 5589 5580 5578 5575 5570 5564 5559 5555 5551 5549 5547 5546 5545 5543 5542 5540 5537 5534 5531 5528 5525 5522 5519 5515 5512 5510 5507 5505
5693 5686 5674 5667 5650 5636 5646 5663 5666 5650 5620 5622 5617 5607 5601 5597 5585 5571 5567 5565 5560 5555 5551 5547 5544 5542 5539 5538 5537 5535 5533 5531 5528 5525 5522 5519 5516 5512 5509 5506 5504 5502 5499 5497
5680 5680 5672 5665 5650 5642 5655 5662 5659 5629 5617 5620 5615 5607 5601 5595 5585 5571 5563 5557 5552 5547 5544 5540 5538 5535 5533 5532 5530 5528 5525 5522 5520 5517 5513 5510 5507 5504 5501 5498 5495 5493 5492 5490
5677 5673 5669 5664 5644 5631 5653 5653 5637 5626 5627 5620 5611 5603 5594 5585 5574 5565 5557 5550 5545 5541 5537 5535 5532 5529 5527 5526 5524 5520 5517 5514 5512 5508 5504 5501 5499 5497 5494 5490 5488 5487 5486 5484
5678 5669 5665 5654 5640 5643 5648 5643 5639 5634 5623 5615 5606 5597 5588 5577 5568 5560 5553 5547 5542 5538 5534 5531 5528 5525 5522 5520 5517 5513 5510 5508 5504 5499 5496 5493 5490 5488 5486 5484 5482 5481 5480 5479
5678 5680 5667 5652 5644 5645 5644 5640 5635 5628 5619 5612 5603 5593 5584 5573 5564 5557 5551 5545 5540 5535 5532 5528 5525 5520 5516 5514 5511 5507 5504 5500 5496 5492 5489 5486 5484 5481 5479 5477 5476 5475 5472 5470
5680 5676 5665 5650 5645 5642 5638 5634 5629 5622 5615 5607 5598 5589 5580 5571 5563 5556 5549 5543 5538 5534 5530 5525 5521 5516 5512 5508 5505 5502 5498 5494 5490 5487 5484 5482 5480 5477 5474 5471 5466 5465 5460 5459
5688 5678 5666 5656 5652 5645 5633 5632 5626 5616 5608 5601 5592 5583 5576 5569 5561 5555 5548 5542 5537 5531 5526 5521 5517 5512 5508 5504 5500 5496 5492 5489 5485 5482 5480 5479 5477 5474 5472 5468 5463 5457 5455 5452